196  
ASUS42 KTBW 210716  
RWRFL  
FLORIDA REGIONAL WEATHER ROUNDUP  
NATIONAL WEATHER SERVICE TAMPA BAY RUSKIN FL  
200 AM EST TUE FEB 21 2017  
 
NOTE: "FAIR" INDICATES FEW OR NO CLOUDS BELOW 12,000 FEET WITH NO  
SIGNIFICANT WEATHER AND/OR S TO VISIBILITY
.  
 
FLZ001>010-012>015-112-114-115-210800-  
PANHANDLE FLORIDA  
 
CITY SKY/WX TMP DP RH WIND PRES REMARKS
 
PENSACOLA PTCLDY 67 64 90 SE9 30.00F  
PENSACOLA NAS MOCLDY 67 65 93 SE9 29.99F  
MILTON NAS LGT RAIN 61 61 100 E6 30.01  
CRESTVIEW PTCLDY 55 54 96 CALM 30.04S FOG  
DUKE FIELD FAIR 61 60 95 CALM 30.02R  
VALPARAISO MOCLDY 65 62 92 SE6 30.02F  
MARY ESTHER MOCLDY 67 62 84 SE7 30.01S  
PANAMA CITY FAIR 59 57 93 E6 30.03F  
TYNDALL AFB MOCLDY 61 60 95 SE7 30.04F  
APALACHICOLA CLOUDY 59 58 96 SE3 30.05F  
 
STATION/POSITION SKY/WX TEMP WIND PRES WAVE SWELL
 
AIR SEA DIR/SP/G HT/PER HT/PER  
(F) (DEG/KT/KT) (MB) (FT/S) (FT/S)  
30.1N 87.6W 69 68 150/ 16/ 17 1015.2F 4/ 5  
28.8N 86.0W 71 70 1016.9F 2/ 5  
PANAMA CITY BEAC 67 120/ 11/ 12 1017.2F  
TOWER C 67 150/ 8/ 8 1018.2F  
28.5N 84.5W 70 70 130/ 6/ 8 1017.8R 1/ 7  
 

 
FLZ011-016>038-118-127-128-134-139-239-210800-  
NORTH FLORIDA  
 
CITY SKY/WX TMP DP RH WIND PRES REMARKS
 
MARIANNA MOCLDY 58 56 93 CALM 30.05F  
TALLAHASSEE PTCLDY 55 53 93 CALM 30.07S  
PERRY PTCLDY 59 55 85 CALM 30.10S  
CROSS CITY CLOUDY 61 55 82 CALM 30.09F  
LAKE CITY FAIR 57 57 100 E5 30.11F  
GAINESVILLE CLOUDY 56 53 90 CALM 30.11S  
WILLISTON CLEAR 61 59 94 CALM 30.11S  
PALATKA FOG 54 54 100 CALM 30.12S VSB<1/4  
MAYPORT NAS PTCLDY 64 62 93 E6 30.11F  
JACKSONVILLE FOG 54 54 100 CALM 30.11F VSB 1/2  
FERNANDINA BEA FAIR 66 64 94 E6 30.10F  
ST AUGUSTINE PTCLDY 67 64 90 E6 30.11F  
 
STATION/POSITION SKY/WX TEMP WIND PRES WAVE SWELL
 
AIR SEA DIR/SP/G HT/PER HT/PER  
(F) (DEG/KT/KT) (MB) (FT/S) (FT/S)  
SHELL POINT NOT AVBL  
KEATON BEACH 63 90/ 7/ 8 1018.4S  
CEDAR KEY 67 60/ 10/ 11 1019.3F  
FERNANDINA 64 67 80/ 3/ 6 1020.4F  
30.7N 81.3W 64 N/A 1/ 4  
MAYPORT 65 66 80/ 4/ 6 1019.9F  
31.4N 80.9W 63 62 70/ 4/ 6 1020.1S 1/ 4 2/ 5  
ST AUGUSTINE 67 68 70/ 6/ 6 1020.1F  
 

 
FLZ040-043>046-052-053-057-058-063-144-210800-  
INTERIOR CENTRAL FLORIDA  
 
CITY SKY/WX TMP DP RH WIND PRES REMARKS
 
OCALA CLOUDY 59 55 88 CALM 30.11S  
THE VILLAGES N/A 61 61 100 CALM 30.01S  
LEESBURG CLOUDY 63 61 93 CALM 30.11S  
SANFORD PTCLDY 62 60 93 CALM 30.10S FOG  
ORLANDO EXEC CLOUDY 63 62 97 CALM 30.10S FOG  
ORLANDO INTL CLOUDY 63 62 97 CALM 30.10S  
KISSIMMEE CLOUDY 63 62 97 NW3 30.11S  
WINTER HAVEN PTCLDY 64 62 93 E3 30.11F  
LAKELAND PTCLDY 63 61 94 CALM 30.10S  
BARTOW FAIR 59 N/A N/A CALM 30.10S  
OKEECHOBEE CLOUDY 55 54 94 CALM 30.09S  
 

 
FLZ041-047-054-059-064-141-147-210800-  
EAST CENTRAL FLORIDA  
 
CITY SKY/WX TMP DP RH WIND PRES REMARKS
 
DAYTONA BEACH PTCLDY 61 61 100 CALM 30.10F  
DELAND PTCLDY 59 57 94 CALM 30.10S  
JFK SPACE CTR CLEAR 56 56 100 CALM 30.08F  
CAPE CANAVERAL CLEAR 64 58 81 E7 30.08S  
PATRICK AFB CLOUDY 70 61 73 E8 30.08F  
MELBOURNE CLOUDY 69 60 73 E7 30.09S  
VERO BEACH CLEAR 58 57 97 CALM 30.08S  
FT PIERCE CLEAR 57 57 100 CALM 30.08S  
STUART CLEAR 68 59 73 CALM 30.08F  
 
STATION/POSITION SKY/WX TEMP WIND PRES WAVE SWELL
 
AIR SEA DIR/SP/G HT/PER HT/PER  
(F) (DEG/KT/KT) (MB) (FT/S) (FT/S)  
TRIDENT PIER 69 71 70/ 5/ 6 1020.0F  
28.4N 80.5W 71 N/A 2/ 5  
27.5N 80.2W 72 N/A 2/ 6  
 

 
FLZ050-056-061-142-242-148-248-149-249-151-251-155-255-  
160-260-210800-  
WEST CENTRAL FLORIDA  
 
CITY SKY/WX TMP DP RH WIND PRES REMARKS
 
CRYSTAL RIVER FAIR 57 55 94 CALM 30.10S  
INVERNESS FAIR 57 57 100 CALM 30.11S  
BROOKSVILLE MOCLDY 61 58 90 E5 30.10F  
CLEARWATER AIR FAIR 64 63 94 E3 30.07F  
ST PETE CLEARW CLEAR 65 62 90 E7 30.07F  
TAMPA INTL PTCLDY 69 61 75 E5 30.09F  
TAMPA EXEC MOCLDY 61 59 94 CALM 30.10F  
PLANT CITY MOCLDY 63 63 100 CALM 30.12S FOG  
MACDILL AFB CLEAR 64 64 100 E7 30.07F  
PETER O KNIGHT CLOUDY 68 64 88 E6 30.09F  
ST PETERSBURG CLEAR 68 62 81 SE12 30.07F  
SARASOTA CLEAR 62 59 90 E6 30.06F  
VENICE FAIR 64 63 94 NE5 30.08F  
 
STATION/POSITION SKY/WX TEMP WIND PRES WAVE SWELL
 
AIR SEA DIR/SP/G HT/PER HT/PER  
(F) (DEG/KT/KT) (MB) (FT/S) (FT/S)  
27.3N 84.2W 72 N/A 1/ 7  
CLEARWATER BEACH 67 76 80/ 5/ 6 1018.8F  
MIDDLE TAMPA BAY 67 110/ 10/ 12 1019.1S  
VENICE 68 70 60/ 6/ 6 1017.8F  
 

 
FLZ066-069-070-075>078-162-262-165-265-210800-  
SOUTHWEST FLORIDA AND KEYS  
 
CITY SKY/WX TMP DP RH WIND PRES REMARKS
 
PUNTA GORDA CLEAR 64 61 90 E6 30.09F  
FT MYERS CLOUDY 70 63 78 E3 30.07S  
SOUTHWEST INTL MOCLDY 68 61 78 CALM 30.07F  
NAPLES CLOUDY 69 65 86 NE5 30.06F  
MARCO ISLAND CLOUDY 70 64 83 E3 30.07S  
MARATHON PTCLDY 74 64 71 E6 30.04F  
KEY WEST INTL PTCLDY 74 65 73 E6 30.05F  
 
STATION/POSITION SKY/WX TEMP WIND PRES WAVE SWELL
 
AIR SEA DIR/SP/G HT/PER HT/PER  
(F) (DEG/KT/KT) (MB) (FT/S) (FT/S)  
NAPLES 74 1018.2F  
26.0N 85.6W 74 75 120/ 14/ 16 1016.8F 2/ 5  
DRY TORTUGAS 74 110/ 13/ 14 1016.9F  
SAND KEY 75 110/ 11/ 13 1017.8F  
LONG KEY 74 77 90/ 10/ 12 1017.9F  
 

 
FLZ067-068-071>074-168-172>174-210800-  
SOUTHEAST FLORIDA  
 
CITY SKY/WX TMP DP RH WIND PRES REMARKS
 
W PALM BEACH PTCLDY 71 58 63 E8 30.07F  
FT LAUDER-EXEC CLEAR 71 57 61 E10 30.05F  
FT LAUDERDALE PTCLDY 72 58 61 E9 30.05F  
POMPANO BEACH MOCLDY 73 60 63 E8 30.06S  
PEMBROKE PINES CLEAR 69 58 67 E7 30.07S  
OPA LOCKA CLEAR 69 58 67 E5 30.06S  
MIAMI PTCLDY 68 59 73 E6 30.06S  
WEST KENDALL CLEAR 62 60 93 W3 30.06S  
HOMESTEAD MOCLDY 71 64 80 NE5 30.05S  
 
STATION/POSITION SKY/WX TEMP WIND PRES WAVE SWELL
 
AIR SEA DIR/SP/G HT/PER HT/PER  
(F) (DEG/KT/KT) (MB) (FT/S) (FT/S)  
PORT EVERGLADES 73 80/ 7/ 11 1017.9S  
VIRGINIA KEY 74 81 60/ 8/ 16 1018.0F  
LAKE WORTH 90/ 9/ 11 N/A  
FOWEY ROCKS 73 76 60/ 13/ 15 1018.3R  
 

 
 
 
 
CLICK HERE TO GO TO PREVIOUS BULLETINS.

The Nexlab FL Page Main Text Page